Overview Statistics Trail Chart Weather Telemetry Raw packets
 

This is the latest recevied weather packets stored in our database for station/object KC4JIR. If no packets are shown the sender has not sent any weather packets the latest 10 day(s).

<< 74 75 76 77 78 79 80 >>
Time Temp. Humidity Pressure Rain* Wind** Luminosity Snow
1788101883 27.22° C 92% 1019.2 hPa 0 mm - 195 W/m² -
1788101579 27.78° C 92% 1019.3 hPa 0 mm - 108 W/m² -
1788101274 27.78° C 92% 1019 hPa 0 mm - 154 W/m² -
1788100970 27.22° C 93% 1019.3 hPa 0 mm - 419 W/m² -
1788100666 27.22° C 94% 1019 hPa 0 mm - 342 W/m² -
1788100365 26.67° C 95% 1019 hPa 0 mm - 416 W/m² -
1788100059 26.67° C 95% 1019 hPa 0 mm - 155 W/m² -
1788099754 26.11° C 97% 1019.3 hPa 0 mm - 257 W/m² -
1788099450 25.56° C 98% 1019.1 hPa 0 mm - 170 W/m² -
1788099144 25° C 99% 1019.7 hPa 0 mm - 203 W/m² -
1788098834 25° C 99% 1019.5 hPa 0 mm - 289 W/m² -
1788098529 24.44° C 99% 1019.2 hPa 0 mm - 148 W/m² -
1788098223 24.44° C 99% 1019.3 hPa 0 mm - 127 W/m² -
1788097918 24.44° C 99% 1019.3 hPa 0 mm - 86 W/m² -
1788097614 24.44° C 99% 1019.3 hPa 0 mm - 75 W/m² -
1788097309 24.44° C 99% 1019.3 hPa 0 mm - 78 W/m² -
1788097005 23.89° C 99% 1019.1 hPa 0 mm - 79 W/m² -
1788096701 23.89° C 99% 1019.2 hPa 0 mm - 68 W/m² -
1788096396 23.89° C 99% 1019.2 hPa 0 mm - 70 W/m² -
1788096092 23.89° C 99% 1019.2 hPa 0 mm - 69 W/m² -
1788095791 23.89° C 99% 1019.4 hPa 0 mm - 65 W/m² -
1788095485 23.89° C 99% 1019.1 hPa 0 mm - 62 W/m² -
1788095180 23.89° C 99% 1018.9 hPa 0 mm - 68 W/m² -
1788094875 23.33° C 99% 1019 hPa 0 mm - 69 W/m² -
1788094569 23.33° C 99% 1019 hPa 0 mm - 65 W/m² -

* Rain latest hour (hover to see other rain measurements)
** Current wind speed in m/s (hover to see current wind gust speed)